Theta_e
317 316 316 316 315 315 314 313 314 314 314 314 314 313 313 312 311 310 308 308 308 309 309 309 311 312 313 314 314 313 313 313 313 314 314 314 315 316 316 317 317 317
314 314 314 314 314 313 311 310 310 310 310 310 310 309 309 308 307 306 306 306 306 306 306 306 307 308 309 311 312 312 312 312 312 312 312 312 313 313 313 313 314 314
310 311 311 311 310 309 308 308 307 307 307 307 307 307 306 306 306 306 306 306 305 305 305 305 305 305 306 306 307 308 308 309 310 310 310 310 310 309 310 310 310 311
308 308 308 308 307 307 307 307 307 306 306 306 306 306 305 306 305 305 305 305 305 305 304 304 304 304 304 304 304 305 305 306 306 306 306 306 306 306 306 306 306 307
307 307 307 307 307 306 306 306 306 306 305 305 305 305 305 305 305 304 304 304 304 303 303 303 303 303 303 303 303 303 303 303 303 303 303 303 303 303 303 303 303 303
306 306 306 306 306 306 306 305 305 305 305 305 304 304 304 304 304 303 303 303 302 302 302 302 302 302 302 301 302 301 301 301 301 301 301 301 301 301 301 301 301 301
305 305 305 305 305 305 305 305 304 304 303 303 303 302 302 301 301 301 301 300 300 300 300 300 300 300 300 300 300 300 300 300 300 300 300 300 300 300 300 300 300 300
305 305 304 304 304 304 303 302 301 301 300 300 300 299 299 298 298 298 298 297 297 297 297 298 298 298 299 299 299 299 298 298 299 299 299 299 299 299 298 299 299 299
304 304 303 302 302 301 300 300 299 298 298 297 297 297 296 296 296 295 295 295 295 296 296 296 296 297 297 297 297 297 297 297 297 297 297 297 297 297 297 298 298 298
302 301 300 300 299 298 298 297 297 296 296 295 295 295 295 294 294 294 294 294 294 294 294 294 295 295 295 296 296 296 297 297 297 296 296 296 296 296 296 297 297 297
299 298 298 297 296 296 295 295 294 294 294 294 294 293 293 293 293 293 293 293 292 293 293 293 293 293 293 294 294 295 296 296 296 296 296 296 296 296 296 296 296 296
297 296 295 295 294 294 294 293 293 293 293 293 292 292 292 292 292 292 292 292 292 292 292 292 292 292 293 293 293 293 294 294 294 295 295 295 295 295 295 295 295 295
295 294 294 294 293 293 292 292 292 291 292 292 292 292 291 291 291 291 291 291 291 291 291 291 291 291 292 292 292 292 292 292 293 293 293 294 294 294 294 294 295 295
293 293 293 292 292 292 291 291 291 291 291 291 291 291 291 291 291 291 291 291 291 291 291 291 291 291 291 291 291 291 291 291 291 292 292 292 293 293 293 293 294 294
292 292 292 291 291 291 291 291 291 291 291 291 291 291 291 291 290 290 290 290 290 290 290 290 290 290 290 290 290 290 290 290 291 291 291 291 291 291 292 292 292 293
292 291 291 291 291 291 291 290 290 291 291 291 290 290 290 290 290 290 289 289 289 289 289 289 289 289 289 289 290 290 289 290 290 290 290 290 290 290 290 291 291 292
291 291 290 290 290 290 290 290 290 290 290 290 290 290 290 290 289 290 289 289 289 289 289 289 289 289 289 289 289 289 289 289 289 289 289 289 289 290 290 290 290 291
291 290 290 290 290 290 290 290 290 290 290 290 290 290 290 290 289 290 289 289 289 289 289 289 289 289 289 289 289 289 289 289 289 289 289 289 289 289 289 290 290 290
290 290 289 289 289 289 289 289 289 290 290 290 290 289 289 289 289 289 289 289 289 289 289 289 289 289 289 289 289 289 289 289 289 289 289 289 289 289 289 289 290 290
289 289 289 289 289 289 289 290 290 290 289 289 289 289 289 289 289 289 289 289 289 288 288 289 289 289 288 288 288 288 288 288 288 288 289 289 289 289 289 289 289 289
288 288 289 289 289 289 290 289 289 289 289 289 288 288 288 288 288 288 288 288 288 288 288 288 288 288 288 288 288 288 288 288 288 288 288 288 289 288 289 289 289 289
288 288 289 289 289 289 289 289 289 288 288 288 288 288 288 288 288 288 288 288 288 288 288 288 288 288 287 288 288 287 287 287 288 288 288 288 288 288 288 288 288 289
288 289 289 289 289 289 288 288 288 288 288 288 288 288 288 288 288 288 288 287 287 287 287 287 288 288 287 287 287 287 287 287 287 287 287 288 288 288 288 288 288 288
288 289 289 288 288 288 288 288 288 288 288 288 288 288 288 287 287 287 287 287 287 287 287 287 287 288 287 287 287 287 286 286 286 287 287 287 287 288 288 288 288 288
288 288 288 288 288 288 287 287 287 287 287 287 287 287 287 287 287 287 287 287 287 287 287 287 287 287 287 287 286 286 286 286 286 287 287 287 287 287 287 287 287 288
288 287 287 287 287 287 287 287 287 287 287 287 287 287 287 287 287 286 287 287 287 286 286 286 286 286 287 286 286 285 285 285 286 286 286 287 287 287 287 287 287 287
Wind_Speed
8 7 7 5 5 3 3 3 2 1 2 1 2 2 3 5 7 8 8 8 8 9 10 10 11 12 12 12 13 14 14 15 16 16 17 18 19 20 21 22 23 24
9 9 9 7 5 4 4 4 4 4 4 3 2 3 4 5 7 8 9 9 10 10 9 9 9 9 9 11 12 13 14 15 16 16 16 18 19 20 21 22 22 24
11 10 10 9 7 6 6 6 6 6 5 5 5 6 6 7 8 9 10 11 11 11 11 11 11 10 10 10 10 11 12 14 15 15 17 18 18 19 20 21 22 23
13 12 11 10 10 9 8 8 8 8 7 8 8 8 9 9 10 11 12 12 13 13 13 12 12 13 13 13 13 13 13 13 14 15 17 18 19 19 20 20 21 22
15 14 13 12 12 12 11 11 11 11 11 11 11 12 12 12 13 13 14 14 14 14 14 14 14 15 15 15 15 15 15 15 15 16 18 19 20 20 20 20 21 22
16 15 15 15 15 14 14 14 14 13 12 13 13 13 13 13 14 14 15 15 15 15 16 16 16 17 17 17 17 17 17 17 17 18 19 20 21 22 21 21 22 23
18 17 17 16 16 15 15 16 15 14 14 14 14 14 14 14 15 15 16 16 16 16 16 16 17 17 17 17 18 18 18 18 19 20 21 22 23 24 24 23 23 24
19 18 17 16 16 16 16 16 15 15 15 15 15 15 15 15 15 15 15 16 15 15 15 15 16 16 17 17 18 19 19 20 20 21 22 23 23 24 25 24 25 26
18 18 17 16 16 16 16 16 16 15 15 15 15 15 15 14 15 14 14 15 15 15 15 15 16 16 17 17 18 18 19 20 20 20 21 23 24 25 25 25 26 27
19 18 17 17 17 16 15 15 15 14 14 15 14 14 14 14 14 14 14 15 15 15 16 16 16 17 17 18 18 18 19 20 21 22 22 23 25 26 26 27 27 29
19 18 17 17 17 16 15 14 14 14 14 14 14 14 14 14 14 14 15 16 16 16 17 17 18 19 19 20 20 20 21 22 24 24 25 25 26 27 28 28 29 30
18 18 17 16 16 15 14 13 13 13 14 15 15 15 15 15 16 16 17 18 18 19 19 20 21 21 22 22 23 23 24 25 26 26 27 27 28 29 29 29 30 31
18 17 16 15 14 14 13 13 13 13 14 16 16 16 17 17 18 18 19 20 20 21 22 22 23 24 24 24 25 25 26 27 28 29 29 30 30 31 31 31 32 32
17 16 15 14 14 13 13 13 13 13 15 17 17 17 18 18 19 20 21 22 23 23 23 24 25 26 26 26 26 27 27 28 29 30 31 32 33 33 33 33 33 33
15 15 14 14 13 13 13 13 13 14 16 17 18 18 19 19 20 22 23 24 24 24 25 25 26 27 27 27 27 28 29 30 31 32 32 34 36 36 37 36 35 35
14 14 13 13 12 12 12 12 13 15 16 18 18 19 19 21 22 23 24 24 25 26 26 27 27 28 28 28 28 28 30 32 33 34 35 36 37 39 40 39 38 37
13 12 12 12 11 11 12 13 15 16 18 18 19 20 21 22 23 24 24 25 25 26 27 27 28 30 30 31 31 31 32 33 34 36 37 37 37 38 40 41 40 39
11 11 11 11 11 12 13 14 16 17 18 19 19 20 22 23 24 24 25 26 26 27 28 29 31 32 32 33 33 33 33 34 35 36 38 38 38 38 39 40 41 41
10 10 10 10 11 12 14 15 16 18 19 19 20 21 22 23 24 26 27 28 29 30 31 32 33 34 34 34 35 36 35 34 35 37 38 39 39 39 39 40 40 40
9 9 9 10 11 13 14 16 17 18 19 19 20 22 23 25 26 28 29 30 31 32 33 34 34 35 36 36 36 37 37 36 36 37 39 40 41 41 40 41 40 39
7 8 9 11 12 13 15 16 17 19 19 20 21 23 25 27 28 29 31 31 32 33 35 36 36 35 36 37 37 37 38 38 38 38 39 41 42 43 42 40 40 39
6 8 9 11 13 14 15 17 18 19 20 21 23 25 26 28 29 30 31 32 33 34 35 37 38 37 36 38 39 38 38 39 39 39 39 41 43 44 43 41 40 39
6 8 10 12 13 14 16 17 18 20 21 23 25 27 28 29 30 31 31 32 34 34 35 37 40 40 38 38 39 38 37 38 39 39 39 40 43 45 44 42 41 40
6 8 11 12 13 14 16 17 19 20 21 23 25 27 28 28 30 31 32 32 33 34 35 37 40 41 40 39 39 38 37 36 37 37 38 40 42 44 44 43 42 42
7 9 11 12 13 14 16 17 19 20 21 23 24 26 27 28 29 31 33 33 33 34 36 37 39 42 42 40 39 39 37 36 35 35 36 38 40 42 44 44 43 43
7 9 11 12 13 14 15 17 19 20 22 23 24 25 27 28 30 31 33 35 35 35 37 38 38 41 43 42 40 38 37 35 34 34 35 36 38 40 41 42 43 43
Wind_Direction
157 157 150 132 124 131 132 130 134 114 77 46 357 338 318 314 316 320 328 328 323 317 310 305 299 293 296 302 305 306 304 302 300 299 297 295 294 294 295 296 296 294
143 143 135 126 132 134 113 100 97 90 79 60 30 10 352 352 357 359 2 3 1 358 350 343 334 322 310 304 302 303 304 306 307 306 304 299 297 297 295 296 296 295
136 139 139 132 126 115 103 96 91 85 78 65 49 37 29 25 24 23 21 19 16 14 9 3 359 354 345 333 324 318 314 312 312 310 307 304 304 303 301 300 299 297
125 124 124 119 113 106 101 96 90 83 79 72 63 56 50 45 42 39 36 32 28 25 20 15 12 8 5 360 353 348 341 332 326 321 317 315 315 312 308 307 304 301
118 115 114 112 109 106 101 96 90 84 81 76 69 63 57 53 49 45 42 38 34 30 26 23 19 15 12 8 2 358 352 345 340 332 327 327 328 325 321 317 313 311
112 110 111 110 108 106 101 95 89 83 80 75 69 64 58 53 49 44 40 37 32 29 25 22 19 15 12 7 4 0 355 349 346 341 336 335 336 335 333 326 321 319
108 106 105 106 105 103 98 93 88 82 76 71 66 61 54 49 44 39 34 30 26 23 20 16 14 11 7 3 360 358 355 351 348 344 340 338 336 335 334 330 324 320
109 105 102 100 98 95 92 89 84 78 72 66 60 54 47 42 38 34 30 26 23 20 17 13 10 7 4 1 357 354 353 350 347 342 338 335 332 330 330 328 322 317
110 106 102 97 92 87 83 80 76 73 68 61 55 50 44 39 35 32 27 23 20 17 14 11 7 5 2 358 355 351 348 346 344 339 334 331 326 325 324 322 318 313
108 105 103 97 91 84 78 74 70 68 64 58 54 48 42 38 32 28 23 19 15 12 9 6 3 360 358 355 352 348 344 342 340 336 332 328 324 322 321 318 314 311
107 104 100 93 88 82 76 70 63 60 58 54 49 43 37 33 27 22 18 14 11 8 4 2 359 356 354 353 351 348 344 340 338 335 331 328 324 321 320 317 314 311
105 100 95 89 84 78 71 64 56 50 48 45 40 35 30 26 21 18 15 11 9 7 3 0 359 356 354 352 350 346 342 338 336 333 330 327 325 322 320 317 314 312
101 94 90 84 78 73 64 57 50 43 40 38 34 30 26 22 18 15 13 10 8 5 3 360 358 356 353 350 348 343 338 335 333 332 329 327 325 322 320 318 314 312
97 91 85 78 72 66 58 51 45 38 35 32 29 26 22 17 14 11 8 7 4 2 0 357 354 353 350 346 343 339 335 332 330 329 326 324 323 321 319 317 314 312
96 88 81 74 66 60 53 45 39 34 31 27 24 21 17 13 10 7 4 2 0 358 356 354 351 349 346 343 338 334 331 329 327 326 325 323 322 321 319 317 315 312
94 86 79 70 62 55 47 40 33 28 25 22 19 16 13 10 6 4 2 359 356 354 352 350 348 346 345 341 337 333 330 328 326 325 324 322 320 319 318 316 314 312
92 84 76 67 58 50 41 34 27 22 19 17 15 12 9 7 4 2 1 358 354 352 349 348 348 348 347 343 340 337 333 329 327 325 323 321 318 316 315 314 313 311
91 81 73 63 53 43 34 28 22 18 15 13 11 9 7 6 3 1 360 357 354 351 349 348 349 349 347 345 341 338 335 330 326 324 321 319 317 314 312 312 311 310
88 78 69 58 46 37 28 23 19 15 13 12 10 9 6 4 2 360 359 357 353 350 348 346 347 347 345 343 340 337 335 331 326 323 321 318 317 314 312 311 309 309
84 73 63 50 38 31 24 20 18 15 13 11 9 7 4 2 360 357 356 354 351 348 345 343 344 345 343 341 339 337 334 330 325 323 320 318 316 314 312 310 309 307
76 63 53 42 33 28 23 19 17 14 11 9 7 4 1 359 357 354 352 351 349 346 342 340 341 342 342 340 338 336 333 329 325 322 320 317 316 314 312 309 308 307
64 53 45 37 31 27 22 18 15 12 8 6 3 0 358 355 353 351 349 347 346 344 340 338 338 340 340 339 337 335 332 328 325 322 319 316 315 314 312 309 308 307
55 47 41 35 29 25 21 16 12 10 6 3 359 355 354 352 349 348 347 345 343 342 339 336 336 337 337 336 334 332 329 326 324 321 317 314 313 313 311 309 308 306
52 46 39 34 28 23 19 14 9 7 3 360 356 352 350 350 347 344 343 342 340 339 337 333 333 334 334 333 332 330 328 325 322 319 315 312 311 311 310 308 306 305
55 47 38 32 28 21 16 10 5 3 360 356 353 351 348 347 345 341 339 338 337 335 334 332 330 330 331 330 329 328 327 325 322 316 311 310 310 308 308 307 305 304
56 47 37 29 23 17 12 7 1 358 356 353 350 348 345 343 342 339 336 334 334 333 331 330 328 328 329 329 327 326 325 324 320 314 309 308 307 305 303 303 303 303